Valeri Dimitrov

Chefscout - Montana
3 Apr 2027
Samstag
Verarbeitung

Persönlichkeit

Anpassungsfähigkeit (3) Ehrgeiz (9) Kontroverse (6) Loyalität (10) Druck (16) Professionalität (18) Fairness (16) Temperament (14)

Profil

Trainerstil Demokratisch
Lizenz Kontinentale C
Entschlossenheit 7
Menschenführung 6
Motivation 5
Disziplin 6
Arbeitszufriedenheit
50%
Ermüdung
0%
Rolle Chefscout
Gehalt 22.1K p/W
Vertrag 14.03.2029

Leistung

Verhalten Normal
Trainingseffektivität
10%
Spielerentwicklung
20%
Verletzungsprävention
25%
Taktische Umsetzung
10%

Letzte Ereignisse

Nahm an einer Scouting-Besprechung teil 7T her
Nahm an einer Scouting-Besprechung teil 14T her
Nahm an einer Scouting-Besprechung teil 21T her
Nahm an einer Scouting-Besprechung teil 28T her
Nahm an einer Scouting-Besprechung teil 35T her
Nahm an einer Scouting-Besprechung teil 42T her
Nahm an einer Scouting-Besprechung teil 49T her
Nahm an einer Scouting-Besprechung teil 56T her

Aktuell beobachtet

89
Spieler Verein Status Fähigkeit Vertrauen Beobachtet Zuletzt beobachtet Letzte Stimme
Ismael Ferrer Beroe Aktiv 94 / 79 51% 1 06.01.2027 -
Jorge Padilla Cherno More Aktiv 90 / 103 40% 2 30.12.2026 -
Yeangel Montero Naxxar Lions Aktiv 119 / 106 40% 2 30.12.2026 -
Eren Aydın Zira Aktiv 105 / 126 40% 3 27.12.2026 -
Alexandr Dolgov Amkar Aktiv 94 / 96 40% 3 27.12.2026 -
Dilan Ortíz Ufa Aktiv 96 / 99 40% 3 25.12.2026 -
Carlos Zepeda Kvant Aktiv 90 / 73 40% 1 25.12.2026 -
Daniel Ivanov Spartak 1918 Aktiv 84 / 87 40% 1 24.12.2026 -
Aaron Drinan Swindon Town Aktiv 103 / 100 40% 1 24.12.2026 -
Franklin Sasere Birkirkara Aktiv 104 / 78 40% 2 22.12.2026 -
Kenan Dervišagić Floriana Aktiv 119 / 101 40% 1 22.12.2026 -
Martin Petkov Botev Vratsa Aktiv 95 / 101 40% 7 21.12.2026 -
Preslav Borukov Lokomotiv Sofia Aktiv 88 / 98 40% 2 19.12.2026 -
Valdu Té Dobrudzha Aktiv 88 / 100 40% 2 19.12.2026 -
Daniel Tarazona Neftchi Aktiv 81 / 74 40% 3 17.12.2026 -
Daniil Kondrakov KDV Tomsk Aktiv 89 / 95 40% 2 15.12.2026 -
Tyrese Shade Burton Albion Aktiv 110 / 88 40% 2 13.12.2026 -
Juan Perea Levski Aktiv 116 / 105 40% 1 13.12.2026 -
Jack Vale Alcione Milano Aktiv 72 / 70 40% 2 12.12.2026 -
Yefrín Castillo Lokomotiv Plovdiv Aktiv 84 / 85 40% 2 11.12.2026 -
Ivo Costantino Danubio Aktiv 121 / 90 40% 1 11.12.2026 -
Kirill Bogdanets Volna Aktiv 99 / 98 40% 1 06.12.2026 -
Wladimir Cid NK Zavrc Aktiv 87 / 98 40% 2 04.12.2026 -
Miro Dinamo Makhachkala Aktiv 108 / 104 40% 3 03.12.2026 -
Ildi Gruda Egnatia Rrogozhinë Aktiv 109 / 112 40% 1 03.12.2026 -
Antony Medrano Dobrudzha Aktiv 91 / 86 40% 3 28.11.2026 -
Ilja Safronov Rotor Aktiv 97 / 109 40% 2 26.11.2026 -
Hernán Luna NK Domzale Aktiv 96 / 94 40% 1 26.11.2026 -
Matěj Koubek MFK Ruzomberok Aktiv 114 / 110 40% 2 25.11.2026 -
Alexandr Saplinov Volga Aktiv 101 / 104 40% 2 25.11.2026 -
Marcus Browne AFC Wimbledon Aktiv 103 / 112 40% 2 24.11.2026 -
Matty Stevens AFC Wimbledon Aktiv 119 / 86 40% 1 23.11.2026 -
Ruben Silva-Richards Dinamo City Aktiv 103 / 120 40% 1 21.11.2026 -
Stephen Humphrys Bradford City Aktiv 100 / 108 40% 1 20.11.2026 -
Bismark Charles Kwarema Vllaznia Shkodër Aktiv 103 / 109 40% 1 19.11.2026 -
Paul Mbong Floriana Aktiv 115 / 95 40% 1 17.11.2026 -
Diamanka Senghor Mosta Aktiv 96 / 84 40% 1 16.11.2026 -
Sam Nombe Milton Keynes Dons Aktiv 127 / 112 40% 2 14.11.2026 -
Julien Lamy Arda Aktiv 99 / 104 40% 1 14.11.2026 -
Alexandr Olenev Nart Aktiv 70 / 74 40% 1 13.11.2026 -
Mauro Schönfeld Stjarnan Aktiv 103 / 110 40% 1 11.11.2026 -
Lucas González Estudiantes Aktiv 101 / 86 40% 1 10.11.2026 -
Giancarlo Mosta Aktiv 65 / 88 40% 1 07.11.2026 -
Marcos Cuenca Zaragoza Aktiv 114 / 101 40% 2 06.11.2026 -
Redon Xhixha Tirana Aktiv 103 / 111 40% 1 04.11.2026 -
Mésaque Djú Portimonense Aktiv 108 / 86 40% 1 04.11.2026 -
Jay-Roy Grot OB Aktiv 96 / 106 40% 1 31.10.2026 -
Stefán Árni Geirsson KR Aktiv 116 / 106 40% 1 30.10.2026 -
Mikhail Ageev Kuban Aktiv 99 / 96 40% 1 30.10.2026 -
Promise Omochere Bristol Rovers Aktiv 99 / 115 40% 1 29.10.2026 -
César Magallan Estudiantes de Merida Aktiv 94 / 86 40% 1 26.10.2026 -
Beryly Lubala CSKA 1948 Aktiv 86 / 87 40% 1 23.10.2026 -
Sveinn Aron Guðjohnsen Vikingur Aktiv 132 / 102 40% 1 21.10.2026 -
Martin Sekulić Ural Aktiv 113 / 112 40% 1 21.10.2026 -
Louis Appéré Cambridge United Aktiv 78 / 96 40% 1 20.10.2026 -
Kamran Aliev SKA Khabarovsk Aktiv 92 / 102 40% 1 19.10.2026 -
Davit Gotsiridze Kolkheti Aktiv 74 / 96 40% 1 17.10.2026 -
Jacobo Escobar Sokol Aktiv 91 / 95 40% 1 17.10.2026 -
Ilja Grischenko Kaluga Aktiv 79 / 79 40% 1 15.10.2026 -
Mateo Fernández Angusht Aktiv 65 / 81 40% 2 14.10.2026 -
Adam Vošnjak Rudar Velenje Aktiv 81 / 77 40% 1 12.10.2026 -
Matías Mansilla Yenisey Aktiv 94 / 94 40% 1 11.10.2026 -
Egor Bogomolskiy Zira Aktiv 84 / 84 40% 1 10.10.2026 -
Edarlyn Reyes Arsenal Tula Aktiv 119 / 96 40% 1 09.10.2026 -
Cavid Madatov Khazar Aktiv 88 / 106 40% 1 09.10.2026 -
Pepijn Doesburg AS Trencin Aktiv 99 / 95 40% 1 06.10.2026 -
Félix Villacorta Orenburg Aktiv 103 / 97 40% 1 04.10.2026 -
Danila Shilov Dinamo Stavropol Aktiv 81 / 93 40% 2 03.10.2026 -
Timur Suleimanov Rostov Aktiv 124 / 122 40% 1 03.10.2026 -
Vladimir Nikolov Slavia Sofia Aktiv 118 / 111 40% 2 01.10.2026 -
Maxim Kutovoy Salyut Aktiv 85 / 73 40% 1 30.09.2026 -
Vladimir Khubulov Dinamo Makhachkala Aktiv 106 / 107 40% 1 28.09.2026 -
Aleksa Maraš Botev Plovdiv Aktiv 98 / 84 40% 1 28.09.2026 -
Mahir Abdullayev AZAL Aktiv 119 / 122 40% 1 26.09.2026 -
Ramiro Ruiz Rodríguez Atlético Tucumán Aktiv 127 / 114 40% 2 23.09.2026 -
Denis M. Kovalevich Dinamo Brest Aktiv 106 / 99 40% 1 20.09.2026 -
Vladislav Yatskevich BATE Aktiv 89 / 110 40% 1 20.09.2026 -
Jurica Poldrugač Rudes Aktiv 103 / 99 40% 1 19.09.2026 -
Jaze Kabia Grimsby Town Aktiv 78 / 110 40% 1 18.09.2026 -
Lucas Pazos Kolkheti Aktiv 78 / 110 40% 1 18.09.2026 -
José Rivas Gamboa Trujillanos Aktiv 108 / 91 40% 1 17.09.2026 -
Joshuan Berríos Carabobo Aktiv 108 / 87 40% 1 17.09.2026 -
Junior Paredes Trujillanos Aktiv 105 / 104 40% 1 16.09.2026 -
Magnus Lankhof Dahlby Stabaek Aktiv 101 / 114 40% 1 15.09.2026 -
Sergio Riffo Kolkheti Aktiv 79 / 108 40% 1 12.09.2026 -
Tryggvi Hrafn Haraldsson Valur Aktiv 98 / 107 40% 1 11.09.2026 -
Ronaldo Peña Deportivo Lara Aktiv 102 / 119 40% 1 08.09.2026 -
Jáder Quiñónes Once Caldas Aktiv 121 / 105 40% 1 01.08.2026 -
Facundo Ardiles Estudiantes Aktiv 124 / 129 40% 1 01.08.2026 -